Back to catalog

COSMOS 249 DEB *

LostLEO
NORAD 15534·DEBRIS·🇷🇺 Russia

Launched Oct 20, 1968 from Baikonur Cosmodrome

Loading…

Next Passes (next 24 hours)

TLE

StaleSource: Space-Track

Epoch: Apr 21, 2004, 04:15 UTC

1 15534U 68091CX  04112.17730939  .00001877  00000-0  37247-3 0  9998
2 15534  62.6103  47.8806 0404235 232.7041 123.6613 14.24404109119189

Track COSMOS 249 DEB * in real time with AllMySat

Download on the App Store